Regional Weather Roundup
Issued by NWS

Home | Current Version | Previous Version | Text Only | Print | Product List | Glossary On
Versions: 1 2 3 4 5 6 7 8 9 10 11 12 13 14 15 16 17 18 19 20 21 22 23 24 25 26 27 28 29 30 31 32 33 34 35 36 37 38 39 40 41 42 43 44 45 46 47 48 49 50
000
ASUS44 KOUN 201510
RWROK

WEATHER ROUNDUP FOR OKLAHOMA
NATIONAL WEATHER SERVICE NORMAN OK
1000 AM CDT SUN AUG 20 2017

NOTE: "FAIR" INDICATES FEW OR NO CLOUDS BELOW 12,000 FEET WITH NO
      SIGNIFICANT WEATHER AND/OR OBSTRUCTIONS TO VISIBILITY.

OKZ001>007-009>012-014-015-017-201600-
NORTHWEST OKLAHOMA AND THE PANHANDLE

CITY           SKY/WX    TMP DP  RH WIND       PRES   REMARKS
GAGE           MOSUNNY   83  66  56 S9        29.99S
GUYMON         SUNNY     81  65  58 SW21      29.99R
$$

OKZ016-021>023-033>039-044-045-201600-
SOUTHWEST OKLAHOMA

CITY           SKY/WX    TMP DP  RH WIND       PRES   REMARKS
LAWTON/REGL    CLOUDY    82  73  74 S8        30.00S
LAWTON/FT SILL CLOUDY    80  75  84 S8        29.99R
FREDERICK      CLOUDY    77  72  84 S12       29.98R
CLINTON        SUNNY     82  66  58 S13       30.02R
HOBART         PTSUNNY   83  68  60 S20       30.00R
ALTUS AFB      PTSUNNY   83  69  62 N16       29.99R
$$

OKZ018>020-024>031-201600-
CENTRAL OKLAHOMA

CITY           SKY/WX    TMP DP  RH WIND       PRES   REMARKS
OKLAHOMA CITY  PTSUNNY   83  70  64 S13       30.01R
OKC/WILEY POST MOSUNNY   85  72  65 S13       30.00R HX  91
OKC/TINKER AFB MOSUNNY   84  71  63 S10       30.01R
STILLWATER     SUNNY     86  71  60 S10G16    29.99R HX  91
GUTHRIE        MOSUNNY   87  72  60 S10       29.98R HX  93
$$

OKZ008-013-054>072-201600-
NORTHEAST OKLAHOMA

CITY           SKY/WX    TMP DP  RH WIND       PRES   REMARKS
TULSA          MOSUNNY   87  74  64 SW12G17   29.98S HX  95
TULSA/JONES    SUNNY     87  73  62 S8        29.99S HX  94
PONCA CITY     SUNNY     84  71  65 S7        29.97S
BARTLESVILLE   SUNNY     88  75  65 VRB6      30.00R HX  97
MUSKOGEE       SUNNY     86  77  74 S8        30.03R HX  97
$$

OKZ032-040>043-046>053-073>077-201600-
SOUTH CENTRAL/SOUTHEAST OKLAHOMA

CITY           SKY/WX    TMP DP  RH WIND       PRES   REMARKS
ARDMORE/DWNTWN CLOUDY    81  70  69 S5        30.02R
MCALESTER      SUNNY     88  74  63 VRB5      30.03R HX  96
$$




USA.gov is the U.S. government's official web portal to all federal, state and local government web resources and services.